Regional Weather Roundup
Issued by NWS Charleston, SC

Current Version | Previous Version | Graphics & Text | Print | Product List | Glossary On
Versions: 1 2 3 4 5 6 7 8 9 10 11 12 13 14 15 16 17 18 19 20 21 22 23 24 25 26 27 28 29 30 31 32 33 34 35 36 37 38 39 40 41 42 43 44 45 46 47 48 49 50
000
ASUS42 KCHS 172327
RWRCHS

REGIONAL WEATHER ROUNDUP
NATIONAL WEATHER SERVICE CHARLESTON SC
600 PM EST TUE JAN 17 2017

NOTE: "FAIR" INDICATES FEW OR NO CLOUDS BELOW 12,000 FEET WITH NO
SIGNIFICANT WEATHER AND/OR OBSTRUCTIONS TO VISIBILITY.

NOT ALL STATIONS ARE QUALITY CONTROLLED. USE DATA WITH CAUTION...
ESPECIALLY DEWPOINT OBSERVATIONS.

SCZ027-030-031-034>040-042>050-180000-
...SOUTHEAST SOUTH CAROLINA...

CITY           SKY/WX    TMP DP  RH WIND       PRES   REMARKS
N CHARLESTON   MOCLDY    66  57  72 S8        30.17S
WATERFRONT PRK   N/A     63  60  90 SW5       30.18R
MOUNT PLEASANT FAIR      64  61  88 S6        30.18S
JOHNS ISLAND   FAIR      61  59  94 S7        30.19S
PINOPOLIS        N/A     64  63  94 CALM      30.08S
MONCKS CORNER  FAIR      63  55  77 SW3       30.16F
SUMMERVILLE    FAIR      68  61  77 S3        30.18S
BEAUFORT MCAS  CLOUDY    66  60  81 S7        30.18F
BEAUFORT ARPT  FAIR      63  59  88 S6        30.19S
HILTON HEAD IS PTCLDY    63  59  88 S6        30.20S
WALTERBORO     PTCLDY    70  61  73 S3        30.19R
ALLENDALE      FAIR      70  57  64 CALM      30.16R

...SOUTHERN MIDLANDS AND PEE DEE...

CITY           SKY/WX    TMP DP  RH WIND       PRES   REMARKS
GEORGETOWN     FAIR      57  55  94 CALM      30.18S
KINGSTREE      FAIR      64  55  72 CALM      30.15S
ORANGEBURG     CLOUDY    69  57  65 S7        30.15S
BARNWELL       FAIR      72  59  64 CALM      30.17R
AIKEN          FAIR      64  54  68 S6        30.18S
MANNING        FAIR      61  57  88 S3        30.16R
COLUMBIA       CLOUDY    70  55  59 S6        30.13S
SUMTER         PTCLDY    66  57  73 S6        30.12S
FLORENCE       CLOUDY    64  58  80 S6        30.15F
MYRTLE BEACH   PTCLDY    63  55  77 S7        30.19S
N MYRTLE BEACH PTCLDY    59  56  89 S8        30.17S

$$

GAZ063-065-086>088-099>101-113>116-118-119-134>141-150-180000-
...SOUTHEAST GEORGIA...

CITY           SKY/WX    TMP DP  RH WIND       PRES   REMARKS
SAVANNAH ARPT  MOCLDY    70  56  61 S5        30.19R
HUNTER AAF     CLEAR     67  61  80 S6        30.17R
FORT STEWART   CLEAR     69  60  73 CALM      30.17S
STATESBORO     PTCLDY    66  61  83 S3        30.19R
SYLVANIA       PTCLDY   N/A N/A N/A CALM      30.19R
CLAXTON        FAIR     N/A N/A N/A CALM      30.19R

...CSRA...CENTRAL AND FAR SOUTHEAST GEORGIA...

CITY           SKY/WX    TMP DP  RH WIND       PRES   REMARKS
THOMSON        CLEAR     72  59  64 W3        30.21R
AUGUSTA-BUSH   PTCLDY    72  54  53 SW6       30.15R
AUGUSTA-DANIEL PTCLDY    73  53  49 SW6       30.16R
SWAINSBORO     MOCLDY    70  57  64 S3        30.19R
VIDALIA        CLOUDY    68  61  77 S6        30.19R
EASTMAN        FAIR      71  48  44 CALM      30.21R
HAZLEHURST     FAIR      69  62  78 CALM      30.19R
ALMA           CLEAR     69  60  73 SW3       30.19R
WAYCROSS       CLEAR     73  62  68 SW5       30.20S
JESUP          FAIR      68  61  77 SW3       30.20S
BAXLEY         FAIR      68  63  83 CALM      30.19R
BRUNSWICK      PTCLDY    66  63  88 CALM      30.23R
SAINT SIMONS   CLEAR     63  60  90 SE6       30.21R

$$

SCZ027-028-034-036>038-045-046-048>050-GAZ119-141-180000-
...LAKE AND SUPPLEMENTAL COASTAL OBSERVATIONS...

STATION/POSITION TIME  TEMP    WIND        PRES    WAVE   SWELL
                       AIR SEA DIR/SP/G            HT/PER HT/PER/DIR
                 (UTC) (F)     (DEG/KT/KT) (MB)    (FT/S) (FT/S/D)
WINYAH BAY       2230   60     110/  3     1022.0S
LAKE MURRAY      2250   65     220/  5/  7 1019.6S
ACE BASIN NERRS  2245   63        CALM     1022.0S
FORT PULASKI     2300   62 56  200/  3/  5 1022.8
SAPELO ISLAND    2300   65     140/  5     1023.0

$$

ANZ835-935-AMZ111-154-330-350-352-354-370-450-454-472-180000-
...C-MAN AND BUOY OBSERVATIONS...

STATION/POSITION TIME  TEMP    WIND        PRES    WAVE   SWELL
                       AIR SEA DIR/SP/G            HT/PER HT/PER/DIR
                 (UTC) (F)     (DEG/KT/KT) (MB)    (FT/S) (FT/S/D)
BUOY 41004       2250   69 71  220/  8/ 10 1022.4R   2/10   2/130/10
BUOY 41008       2250   62 61  130/  6/  6 1022.9R   2/ 9   2/100/ 9
FOLLY BEACH CMAN 2300   59     210/  8/  9 1022.7F
CAPERS NEARSHORE 2308   58 54  200/ 10/ 12 1021.9F
FRIPP NEARSHORE  2308   60 57  180/  6/  6 1022.1F


STATION/POSITION TIME  TEMP    WIND        PRES    WAVE   SWELL
                       AIR SEA DIR/SP/G            HT/PER HT/PER/DIR
                 (UTC) (F)     (DEG/KT/KT) (MB)    (FT/S) (FT/S/D)
5E ST. MARYS GA  2300      62                N/A     2/10
FRYING PAN BUOY  2310   70 72  220/ 10/ 12 1022.4
BUOY 41025       2250   70 73  240/ 16/ 19 1020.8S   3/ 8   2/120/ 8
CAPE LOOKOUT NC  2300   64     210/ 10/ 13 1021.2S
BUOY 41002       2250   72 71  210/ 12/ 14 1024.1R   3/ 8   2/ 60/ 8
BUOY 41010       NOT AVBL
ST AUGUSTINE FL  2300   67 65  170/  5/  6 1023.8R


$$




USA.gov is the U.S. government's official web portal to all federal, state and local government web resources and services.